Location: Koussan�
(15.2012°N, 12.5548°W)
Time: 12:36:11
(UTC+00:00)

YAOGAN 1 - Pass Details

Date: 20 October 2020
Orbit: 618 x 620 km, 97.9° (Epoch: 26 November)

Event Time Altitude Azimuth Distance (km) Brightness Sun altitude
Rises 19:21:41 0° 151° (SSE) 2,884 5.8 -13.9°
Reaches altitude 10° 19:24:00 10° 142° (SE) 1,979 4.9 -14.5°
Maximum altitude 19:27:56 35° 76° (ENE) 999 3.1 -15.4°
Drops below altitude 10° 19:31:52 10° 10° (N) 1,982 5.0 -16.4°
Sets 19:34:11 0° 2° (N) 2,888 5.9 -16.9°
